| time (UTC) | temp F | wind direction | speed MPH | gust MPH | rain 1hr in | rain 24hr in | rain mn in | humidity % | barometer mb |
| 20260903143521 | 89 | 273 | 3.0 | 6.0 | 0.00 | 0.00 | 0.00 | 66 | 979.4 |
| 20260903143018 | 89 | 5 | 2.0 | 5.0 | 0.00 | 0.00 | 0.00 | 66 | 979.5 |
| 20260903142519 | 89 | 9 | 2.0 | 5.0 | 0.00 | 0.00 | 0.00 | 66 | 979.5 |
| 20260903142017 | 88 | 270 | 2.0 | 6.0 | 0.00 | 0.00 | 0.00 | 67 | 979.4 |
| 20260903141514 | 87 | 270 | 1.0 | 6.0 | 0.00 | 0.00 | 0.00 | 68 | 979.5 |
| 20260903141014 | 87 | 271 | 1.0 | 6.0 | 0.00 | 0.00 | 0.00 | 69 | 979.5 |
| 20260903140515 | 86 | 273 | 1.0 | 6.0 | 0.00 | 0.00 | 0.00 | 70 | 979.4 |
| 20260903140012 | 86 | 182 | 1.0 | 5.0 | 0.00 | 0.00 | 0.00 | 70 | 979.4 |
| 20260903135510 | 85 | 21 | 2.0 | 5.0 | 0.00 | 0.00 | 0.00 | 70 | 979.4 |
| 20260903135009 | 85 | 5 | 0.0 | 4.0 | 0.00 | 0.00 | 0.00 | 72 | 979.4 |
| 20260903134507 | 84 | 270 | 0.0 | 5.0 | 0.00 | 0.00 | 0.00 | 73 | 979.4 |
| 20260903134007 | 84 | 360 | 2.0 | 7.0 | 0.00 | 0.00 | 0.00 | 73 | 979.5 |
| 20260903133507 | 83 | 360 | 1.0 | 7.0 | 0.00 | 0.00 | 0.00 | 75 | 979.5 |
| 20260903133008 | 82 | 28 | 3.0 | 7.0 | 0.00 | 0.00 | 0.00 | 75 | 979.6 |
| 20260903132503 | 82 | 32 | 1.0 | 9.0 | 0.00 | 0.00 | 0.00 | 76 | 979.7 |
| 20260903132000 | 82 | 19 | 3.0 | 6.0 | 0.00 | 0.00 | 0.00 | 77 | 979.8 |
| 20260903131611 | 81 | 360 | 1.0 | 6.0 | 0.00 | 0.00 | 0.00 | 78 | 979.8 |
| 20260903131058 | 81 | 13 | 2.0 | 9.0 | 0.00 | 0.00 | 0.00 | 79 | 979.9 |
| 20260903130557 | 80 | 14 | 3.0 | 9.0 | 0.00 | 0.00 | 0.00 | 80 | 979.9 |
| 20260903130057 | 79 | 11 | 2.0 | 6.0 | 0.00 | 0.00 | 0.00 | 81 | 979.9 |
| 20260903125554 | 79 | 271 | 1.0 | 4.0 | 0.00 | 0.00 | 0.00 | 82 | 979.9 |
| 20260903125056 | 78 | 272 | 0.0 | 4.0 | 0.00 | 0.00 | 0.00 | 84 | 979.9 |
| 20260903124552 | 77 | 272 | 1.0 | 4.0 | 0.00 | 0.00 | 0.00 | 85 | 980.0 |
| 20260903124051 | 77 | 272 | 1.0 | 4.0 | 0.00 | 0.00 | 0.00 | 86 | 980.0 |
| 20260903123550 | 76 | 272 | 0.0 | 3.0 | 0.00 | 0.00 | 0.00 | 87 | 980.0 |
| 20260903123057 | 76 | 273 | 1.0 | 3.0 | 0.00 | 0.00 | 0.00 | 88 | 979.9 |
| 20260903122550 | 75 | 273 | 0.0 | 3.0 | 0.00 | 0.00 | 0.00 | 89 | 980.0 |
| 20260903122050 | 75 | 273 | 1.0 | 4.0 | 0.00 | 0.00 | 0.00 | 90 | 979.9 |
| 20260903121612 | 74 | 274 | 0.0 | 4.0 | 0.00 | 0.00 | 0.00 | 91 | 979.9 |
| 20260903121052 | 74 | 274 | 0.0 | 0.0 | 0.00 | 0.00 | 0.00 | 91 | 979.9 |
| 20260903120551 | 73 | 274 | 0.0 | 0.0 | 0.00 | 0.00 | 0.00 | 91 | 979.9 |
| 20260903120048 | 73 | 274 | 0.0 | 0.0 | 0.00 | 0.00 | 0.00 | 92 | 979.9 |
| 20260903115547 | 73 | 274 | 0.0 | 0.0 | 0.00 | 0.00 | 0.00 | 92 | 979.9 |
| 20260903115047 | 72 | 274 | 0.0 | 0.0 | 0.00 | 0.00 | 0.00 | 92 | 979.9 |
| 20260903114550 | 72 | 274 | 0.0 | 0.0 | 0.00 | 0.00 | 0.00 | 92 | 979.9 |
| 20260903114047 | 72 | 274 | 0.0 | 0.0 | 0.00 | 0.00 | 0.00 | 92 | 979.8 |
| 20260903113545 | 72 | 274 | 0.0 | 0.0 | 0.00 | 0.00 | 0.00 | 92 | 979.7 |
| 20260903113048 | 72 | 274 | 0.0 | 0.0 | 0.00 | 0.00 | 0.00 | 92 | 979.6 |
| 20260903112546 | 72 | 274 | 0.0 | 0.0 | 0.00 | 0.00 | 0.00 | 92 | 979.6 |
| 20260903112044 | 72 | 274 | 0.0 | 0.0 | 0.00 | 0.00 | 0.00 | 92 | 979.6 |
| 20260903111546 | 72 | 274 | 0.0 | 0.0 | 0.00 | 0.00 | 0.00 | 92 | 979.4 |
| 20260903111043 | 72 | 274 | 0.0 | 0.0 | 0.00 | 0.00 | 0.00 | 92 | 979.4 |
| 20260903110545 | 72 | 274 | 0.0 | 0.0 | 0.00 | 0.00 | 0.00 | 92 | 979.4 |
| 20260903110043 | 72 | 274 | 0.0 | 0.0 | 0.00 | 0.00 | 0.00 | 92 | 979.3 |
| 20260903105541 | 72 | 274 | 0.0 | 0.0 | 0.00 | 0.00 | 0.00 | 92 | 979.2 |
| 20260903105041 | 72 | 274 | 0.0 | 0.0 | 0.00 | 0.00 | 0.00 | 93 | 979.1 |
| 20260903104551 | 71 | 274 | 0.0 | 0.0 | 0.00 | 0.00 | 0.00 | 92 | 979.1 |
| 20260903104039 | 71 | 274 | 0.0 | 0.0 | 0.00 | 0.00 | 0.00 | 92 | 979.0 |
| 20260903103539 | 71 | 274 | 0.0 | 0.0 | 0.00 | 0.00 | 0.00 | 92 | 979.0 |
| 20260903103039 | 71 | 274 | 0.0 | 0.0 | 0.00 | 0.00 | 0.00 | 92 | 978.9 |
| 20260903102539 | 71 | 274 | 0.0 | 0.0 | 0.00 | 0.00 | 0.00 | 92 | 978.9 |
| 20260903102038 | 71 | 274 | 0.0 | 1.0 | 0.00 | 0.00 | 0.00 | 92 | 979.0 |
| 20260903101547 | 72 | 274 | 0.0 | 1.0 | 0.00 | 0.00 | 0.00 | 92 | 979.0 |
| 20260903101038 | 71 | 274 | 0.0 | 0.0 | 0.00 | 0.00 | 0.00 | 92 | 978.9 |
| 20260903100538 | 71 | 274 | 0.0 | 0.0 | 0.00 | 0.00 | 0.00 | 92 | 978.8 |
| 20260903100044 | 72 | 274 | 0.0 | 0.0 | 0.00 | 0.00 | 0.00 | 92 | 978.8 |
| 20260903095538 | 72 | 274 | 0.0 | 0.0 | 0.00 | 0.00 | 0.00 | 92 | 978.7 |
| 20260903095040 | 72 | 274 | 0.0 | 0.0 | 0.00 | 0.00 | 0.00 | 92 | 978.8 |
| 20260903094537 | 72 | 274 | 0.0 | 0.0 | 0.00 | 0.00 | 0.00 | 92 | 978.8 |
| 20260903094037 | 72 | 274 | 0.0 | 0.0 | 0.00 | 0.00 | 0.00 | 92 | 978.9 |
| 20260903093539 | 72 | 274 | 0.0 | 0.0 | 0.00 | 0.00 | 0.00 | 92 | 978.9 |
| 20260903093037 | 72 | 274 | 0.0 | 0.0 | 0.00 | 0.00 | 0.00 | 92 | 978.9 |
| 20260903092536 | 72 | 274 | 0.0 | 1.0 | 0.00 | 0.00 | 0.00 | 91 | 978.8 |
| 20260903092034 | 72 | 274 | 0.0 | 1.0 | 0.00 | 0.00 | 0.00 | 91 | 978.8 |
| 20260903091549 | 72 | 274 | 0.0 | 1.0 | 0.00 | 0.00 | 0.00 | 91 | 978.8 |
| 20260903091034 | 72 | 274 | 0.0 | 1.0 | 0.00 | 0.00 | 0.00 | 91 | 978.8 |
| 20260903090534 | 72 | 274 | 0.0 | 1.0 | 0.00 | 0.00 | 0.00 | 91 | 978.8 |
| 20260903090035 | 72 | 274 | 0.0 | 0.0 | 0.00 | 0.00 | 0.00 | 91 | 978.6 |
| 20260903085535 | 72 | 274 | 0.0 | 0.0 | 0.00 | 0.00 | 0.00 | 91 | 978.7 |
| 20260903085035 | 72 | 274 | 0.0 | 0.0 | 0.00 | 0.00 | 0.00 | 91 | 978.7 |
| 20260903084534 | 72 | 274 | 0.0 | 2.0 | 0.00 | 0.00 | 0.00 | 91 | 978.6 |
| 20260903084033 | 72 | 274 | 0.0 | 0.0 | 0.00 | 0.00 | 0.00 | 91 | 978.6 |
| 20260903083531 | 72 | 274 | 0.0 | 0.0 | 0.00 | 0.00 | 0.00 | 91 | 978.6 |
| 20260903083032 | 72 | 274 | 0.0 | 0.0 | 0.00 | 0.00 | 0.00 | 91 | 978.7 |
| 20260903082532 | 73 | 274 | 0.0 | 2.0 | 0.00 | 0.00 | 0.00 | 91 | 978.7 |
| 20260903082031 | 73 | 274 | 0.0 | 3.0 | 0.00 | 0.00 | 0.00 | 91 | 978.7 |
| 20260903081536 | 73 | 274 | 0.0 | 2.0 | 0.00 | 0.00 | 0.00 | 91 | 978.7 |
| 20260903081034 | 73 | 274 | 0.0 | 0.0 | 0.00 | 0.00 | 0.00 | 90 | 978.7 |
| 20260903080532 | 73 | 274 | 0.0 | 0.0 | 0.00 | 0.00 | 0.00 | 91 | 978.8 |
| 20260903080030 | 73 | 274 | 0.0 | 0.0 | 0.00 | 0.00 | 0.00 | 90 | 978.8 |
| 20260903075533 | 73 | 274 | 0.0 | 0.0 | 0.00 | 0.00 | 0.00 | 90 | 978.9 |
| 20260903075028 | 73 | 274 | 0.0 | 0.0 | 0.00 | 0.00 | 0.00 | 90 | 978.8 |
| 20260903074533 | 73 | 274 | 0.0 | 0.0 | 0.00 | 0.00 | 0.00 | 90 | 978.8 |
| 20260903074028 | 73 | 274 | 0.0 | 0.0 | 0.00 | 0.00 | 0.00 | 90 | 978.8 |
| 20260903073528 | 74 | 274 | 0.0 | 0.0 | 0.00 | 0.00 | 0.00 | 90 | 978.8 |
| 20260903073034 | 74 | 274 | 0.0 | 0.0 | 0.00 | 0.00 | 0.00 | 90 | 978.8 |
| 20260903072527 | 74 | 274 | 0.0 | 0.0 | 0.00 | 0.00 | 0.00 | 90 | 978.9 |
| 20260903072027 | 74 | 274 | 0.0 | 0.0 | 0.00 | 0.00 | 0.00 | 89 | 978.8 |
| 20260903071527 | 74 | 274 | 0.0 | 1.0 | 0.00 | 0.00 | 0.00 | 89 | 978.7 |
| 20260903071027 | 74 | 274 | 0.0 | 2.0 | 0.00 | 0.00 | 0.00 | 89 | 978.7 |
| 20260903070525 | 74 | 274 | 0.0 | 2.0 | 0.00 | 0.00 | 0.00 | 89 | 978.6 |
| 20260903070025 | 74 | 274 | 0.0 | 0.0 | 0.00 | 0.00 | 0.00 | 89 | 978.6 |
| 20260903065525 | 74 | 274 | 0.0 | 0.0 | 0.00 | 0.00 | 0.00 | 89 | 978.5 |
| 20260903065025 | 74 | 274 | 0.0 | 0.0 | 0.00 | 0.00 | 0.00 | 89 | 978.6 |
| 20260903064524 | 74 | 274 | 0.0 | 2.0 | 0.00 | 0.00 | 0.00 | 89 | 978.6 |
| 20260903064025 | 74 | 274 | 0.0 | 2.0 | 0.00 | 0.00 | 0.00 | 88 | 978.6 |
| 20260903063524 | 74 | 274 | 1.0 | 2.0 | 0.00 | 0.00 | 0.00 | 88 | 978.6 |
| 20260903063024 | 74 | 274 | 1.0 | 2.0 | 0.00 | 0.00 | 0.00 | 88 | 978.5 |
| 20260903062522 | 74 | 274 | 0.0 | 1.0 | 0.00 | 0.00 | 0.00 | 88 | 978.5 |
| 20260903062025 | 74 | 274 | 0.0 | 0.0 | 0.00 | 0.00 | 0.00 | 88 | 978.6 |
| 20260903061556 | 74 | 274 | 0.0 | 0.0 | 0.00 | 0.00 | 0.00 | 88 | 978.6 |
| 20260903061021 | 74 | 274 | 0.0 | 0.0 | 0.00 | 0.00 | 0.00 | 88 | 978.6 |
| 20260903060521 | 74 | 274 | 0.0 | 0.0 | 0.00 | 0.00 | 0.00 | 88 | 978.6 |
| 20260903060020 | 74 | 274 | 0.0 | 0.0 | 0.00 | 0.00 | 0.00 | 88 | 978.7 |
| 20260903055520 | 74 | 274 | 0.0 | 0.0 | 0.00 | 0.00 | 0.00 | 88 | 978.6 |
| 20260903055020 | 74 | 272 | 0.0 | 0.0 | 0.00 | 0.00 | 0.00 | 88 | 978.6 |
| 20260903054521 | 74 | 272 | 0.0 | 0.0 | 0.00 | 0.00 | 0.00 | 87 | 978.6 |
| 20260903054020 | 75 | 272 | 0.0 | 0.0 | 0.00 | 0.00 | 0.00 | 88 | 978.6 |
| 20260903053519 | 75 | 272 | 0.0 | 0.0 | 0.00 | 0.00 | 0.00 | 87 | 978.5 |
| 20260903053019 | 75 | 272 | 0.0 | 0.0 | 0.00 | 0.00 | 0.00 | 87 | 978.6 |
| 20260903052524 | 75 | 272 | 0.0 | 0.0 | 0.00 | 0.00 | 0.00 | 87 | 978.6 |
| 20260903052018 | 75 | 272 | 0.0 | 0.0 | 0.00 | 0.00 | 0.00 | 87 | 978.6 |
| 20260903051517 | 75 | 272 | 0.0 | 0.0 | 0.00 | 0.00 | 0.00 | 87 | 978.6 |
| 20260903051016 | 75 | 272 | 0.0 | 0.0 | 0.00 | 0.00 | 0.00 | 87 | 978.6 |
| 20260903050515 | 75 | 272 | 0.0 | 0.0 | 0.00 | 0.00 | 0.00 | 87 | 978.6 |
| 20260903050018 | 76 | 272 | 0.0 | 0.0 | 0.00 | 0.00 | 0.00 | 86 | 978.6 |
| 20260903045514 | 76 | 272 | 0.0 | 0.0 | 0.00 | 0.00 | 0.00 | 86 | 978.6 |
| 20260903045016 | 76 | 272 | 0.0 | 0.0 | 0.00 | 0.00 | 0.00 | 86 | 978.6 |
| 20260903044515 | 76 | 272 | 0.0 | 0.0 | 0.00 | 0.00 | 0.00 | 86 | 978.6 |
| 20260903044016 | 76 | 272 | 0.0 | 0.0 | 0.00 | 0.00 | 0.00 | 86 | 978.7 |
| 20260903043512 | 76 | 272 | 0.0 | 0.0 | 0.00 | 0.00 | 0.00 | 86 | 978.6 |
| 20260903043016 | 76 | 272 | 0.0 | 0.0 | 0.00 | 0.00 | 0.00 | 85 | 978.7 |
| 20260903042512 | 76 | 272 | 0.0 | 0.0 | 0.00 | 0.00 | 0.00 | 85 | 978.7 |
| 20260903042009 | 77 | 272 | 0.0 | 0.0 | 0.00 | 0.00 | 0.00 | 85 | 978.8 |
| 20260903041511 | 77 | 272 | 0.0 | 0.0 | 0.00 | 0.00 | 0.00 | 84 | 978.9 |
| 20260903041012 | 77 | 272 | 0.0 | 0.0 | 0.00 | 0.00 | 0.00 | 84 | 978.9 |
| 20260903040507 | 77 | 272 | 0.0 | 0.0 | 0.00 | 0.00 | 0.00 | 84 | 978.9 |
| 20260903040011 | 77 | 272 | 0.0 | 0.0 | 0.00 | 0.00 | 0.00 | 83 | 979.0 |
| 20260903035505 | 77 | 272 | 0.0 | 0.0 | 0.00 | 0.00 | 0.00 | 83 | 978.9 |
| 20260903035005 | 78 | 272 | 0.0 | 0.0 | 0.00 | 0.00 | 0.00 | 83 | 978.9 |
| 20260903034505 | 78 | 272 | 0.0 | 0.0 | 0.00 | 0.00 | 0.00 | 83 | 978.9 |
| 20260903034005 | 78 | 272 | 0.0 | 0.0 | 0.00 | 0.00 | 0.00 | 82 | 978.8 |
| 20260903033504 | 78 | 272 | 0.0 | 0.0 | 0.00 | 0.00 | 0.00 | 82 | 978.9 |
| 20260903033005 | 78 | 272 | 0.0 | 0.0 | 0.00 | 0.00 | 0.00 | 82 | 978.9 |
| 20260903032506 | 78 | 272 | 0.0 | 0.0 | 0.00 | 0.00 | 0.00 | 82 | 978.9 |
| 20260903032004 | 78 | 272 | 0.0 | 2.0 | 0.00 | 0.00 | 0.00 | 82 | 978.9 |
| 20260903031504 | 78 | 272 | 0.0 | 2.0 | 0.00 | 0.00 | 0.00 | 82 | 979.0 |
| 20260903031004 | 79 | 272 | 0.0 | 0.0 | 0.00 | 0.00 | 0.00 | 81 | 978.9 |
| 20260903030508 | 79 | 272 | 0.0 | 0.0 | 0.00 | 0.00 | 0.00 | 81 | 978.9 |
| 20260903030004 | 79 | 272 | 0.0 | 2.0 | 0.00 | 0.00 | 0.00 | 81 | 978.9 |
| 20260903025504 | 79 | 272 | 0.0 | 2.0 | 0.00 | 0.00 | 0.00 | 81 | 978.9 |
| 20260903025003 | 79 | 272 | 0.0 | 0.0 | 0.00 | 0.00 | 0.00 | 80 | 978.9 |
| 20260903024503 | 80 | 272 | 0.0 | 0.0 | 0.00 | 0.00 | 0.00 | 80 | 978.9 |
| 20260903024003 | 80 | 272 | 0.0 | 1.0 | 0.00 | 0.00 | 0.00 | 79 | 978.9 |
| 20260903023504 | 80 | 272 | 0.0 | 2.0 | 0.00 | 0.00 | 0.00 | 79 | 978.9 |
| 20260903023002 | 80 | 272 | 0.0 | 2.0 | 0.00 | 0.00 | 0.00 | 79 | 978.7 |
| 20260903022504 | 80 | 272 | 0.0 | 0.0 | 0.00 | 0.00 | 0.00 | 79 | 978.6 |
| 20260903022003 | 80 | 272 | 0.0 | 0.0 | 0.00 | 0.00 | 0.00 | 79 | 978.6 |
| 20260903021502 | 81 | 272 | 0.0 | 0.0 | 0.00 | 0.00 | 0.00 | 79 | 978.6 |
| 20260903021002 | 81 | 272 | 0.0 | 1.0 | 0.00 | 0.00 | 0.00 | 78 | 978.6 |
| 20260903020502 | 81 | 272 | 0.0 | 0.0 | 0.00 | 0.00 | 0.00 | 78 | 978.6 |
| 20260903020005 | 81 | 272 | 0.0 | 0.0 | 0.00 | 0.00 | 0.00 | 77 | 978.6 |
| 20260903015502 | 82 | 272 | 0.0 | 0.0 | 0.00 | 0.00 | 0.00 | 77 | 978.5 |
| 20260903015001 | 82 | 272 | 0.0 | 0.0 | 0.00 | 0.00 | 0.00 | 76 | 978.6 |
| 20260903014500 | 82 | 272 | 0.0 | 0.0 | 0.00 | 0.00 | 0.00 | 75 | 978.6 |
| 20260903014101 | 82 | 272 | 0.0 | 0.0 | 0.00 | 0.00 | 0.00 | 75 | 978.6 |
| 20260903013604 | 83 | 272 | 0.0 | 0.0 | 0.00 | 0.00 | 0.00 | 74 | 978.5 |
| 20260903013111 | 83 | 272 | 0.0 | 0.0 | 0.00 | 0.00 | 0.00 | 73 | 978.5 |
| 20260903012559 | 83 | 272 | 0.0 | 0.0 | 0.00 | 0.00 | 0.00 | 73 | 978.5 |
| 20260903012100 | 84 | 272 | 0.0 | 0.0 | 0.00 | 0.00 | 0.00 | 72 | 978.4 |
| 20260903011610 | 84 | 272 | 0.0 | 1.0 | 0.00 | 0.00 | 0.00 | 72 | 978.4 |
| 20260903011100 | 84 | 272 | 0.0 | 2.0 | 0.00 | 0.00 | 0.00 | 71 | 978.4 |
| 20260903010602 | 84 | 272 | 0.0 | 2.0 | 0.00 | 0.00 | 0.00 | 71 | 978.4 |
| 20260903005559 | 84 | 272 | 1.0 | 3.0 | 0.00 | 0.00 | 0.00 | 71 | 978.6 |
| 20260903005100 | 85 | 272 | 0.0 | 3.0 | 0.00 | 0.00 | 0.00 | 72 | 978.6 |
| 20260903004558 | 85 | 272 | 1.0 | 3.0 | 0.00 | 0.00 | 0.00 | 72 | 978.5 |
| 20260903004058 | 85 | 272 | 1.0 | 2.0 | 0.00 | 0.00 | 0.00 | 71 | 978.5 |
| 20260903003600 | 85 | 272 | 0.0 | 2.0 | 0.00 | 0.00 | 0.00 | 70 | 978.4 |
| 20260903003059 | 86 | 272 | 0.0 | 2.0 | 0.00 | 0.00 | 0.00 | 70 | 978.4 |
| 20260903002557 | 86 | 272 | 1.0 | 2.0 | 0.00 | 0.00 | 0.00 | 69 | 978.4 |
| 20260903002059 | 86 | 272 | 0.0 | 2.0 | 0.00 | 0.00 | 0.00 | 69 | 978.4 |
| 20260903001557 | 87 | 272 | 1.0 | 2.0 | 0.00 | 0.00 | 0.00 | 69 | 978.4 |
| 20260903001057 | 87 | 272 | 0.0 | 2.0 | 0.00 | 0.00 | 0.00 | 67 | 978.5 |
| 20260903000557 | 87 | 272 | 0.0 | 0.0 | 0.00 | 0.00 | 0.00 | 66 | 978.5 |
| 20260903000100 | 88 | 272 | 0.0 | 0.0 | 0.00 | 0.00 | 0.00 | 65 | 978.3 |
| 20260902235600 | 88 | 272 | 0.0 | 0.0 | 0.00 | 0.00 | 0.00 | 64 | 978.3 |
| 20260902235057 | 89 | 272 | 0.0 | 0.0 | 0.00 | 0.00 | 0.00 | 64 | 978.2 |
| 20260902234601 | 89 | 272 | 0.0 | 0.0 | 0.00 | 0.00 | 0.00 | 64 | 978.1 |
| 20260902234057 | 89 | 272 | 0.0 | 0.0 | 0.00 | 0.00 | 0.00 | 64 | 978.1 |
| 20260902233556 | 89 | 272 | 0.0 | 0.0 | 0.00 | 0.00 | 0.00 | 64 | 978.2 |
| 20260902233058 | 90 | 272 | 0.0 | 1.0 | 0.00 | 0.00 | 0.00 | 64 | 978.0 |
| 20260902232556 | 90 | 272 | 0.0 | 1.0 | 0.00 | 0.00 | 0.00 | 64 | 978.0 |
| 20260902232055 | 90 | 272 | 0.0 | 1.0 | 0.00 | 0.00 | 0.00 | 64 | 977.9 |
| 20260902231557 | 90 | 272 | 0.0 | 0.0 | 0.00 | 0.00 | 0.00 | 64 | 978.0 |
| 20260902231056 | 90 | 272 | 0.0 | 0.0 | 0.00 | 0.00 | 0.00 | 63 | 978.0 |
| 20260902230555 | 91 | 272 | 0.0 | 2.0 | 0.00 | 0.00 | 0.00 | 63 | 978.0 |
| 20260902230105 | 91 | 272 | 0.0 | 2.0 | 0.00 | 0.00 | 0.00 | 62 | 978.0 |
| 20260902225555 | 91 | 272 | 0.0 | 2.0 | 0.00 | 0.00 | 0.00 | 62 | 977.9 |
| 20260902225055 | 91 | 272 | 0.0 | 2.0 | 0.00 | 0.00 | 0.00 | 61 | 977.9 |
| 20260902224606 | 91 | 272 | 0.0 | 2.0 | 0.00 | 0.00 | 0.00 | 60 | 977.9 |
| 20260902224054 | 92 | 272 | 0.0 | 1.0 | 0.00 | 0.00 | 0.00 | 60 | 977.9 |
| 20260902223554 | 92 | 272 | 0.0 | 0.0 | 0.00 | 0.00 | 0.00 | 59 | 977.9 |
| 20260902223105 | 92 | 272 | 0.0 | 0.0 | 0.00 | 0.00 | 0.00 | 58 | 977.9 |
| 20260902222555 | 93 | 272 | 0.0 | 0.0 | 0.00 | 0.00 | 0.00 | 58 | 977.9 |
| 20260902222054 | 93 | 272 | 0.0 | 0.0 | 0.00 | 0.00 | 0.00 | 56 | 977.8 |
| 20260902221554 | 93 | 272 | 0.0 | 0.0 | 0.00 | 0.00 | 0.00 | 56 | 977.7 |
| 20260902221054 | 93 | 272 | 0.0 | 1.0 | 0.00 | 0.00 | 0.00 | 55 | 977.7 |
| 20260902220555 | 94 | 272 | 0.0 | 1.0 | 0.00 | 0.00 | 0.00 | 55 | 977.7 |
| 20260902220100 | 94 | 272 | 0.0 | 2.0 | 0.00 | 0.00 | 0.00 | 55 | 977.7 |
| 20260902215554 | 95 | 272 | 1.0 | 3.0 | 0.00 | 0.00 | 0.00 | 54 | 977.7 |
| 20260902215053 | 95 | 272 | 0.0 | 4.0 | 0.00 | 0.00 | 0.00 | 51 | 977.7 |
| 20260902214606 | 95 | 272 | 2.0 | 4.0 | 0.00 | 0.00 | 0.00 | 50 | 977.6 |
| 20260902214053 | 95 | 271 | 0.0 | 2.0 | 0.00 | 0.00 | 0.00 | 51 | 977.7 |
| 20260902213556 | 95 | 271 | 0.0 | 2.0 | 0.00 | 0.00 | 0.00 | 50 | 977.6 |
| 20260902213052 | 95 | 271 | 0.0 | 3.0 | 0.00 | 0.00 | 0.00 | 49 | 977.5 |
| 20260902212552 | 95 | 271 | 0.0 | 4.0 | 0.00 | 0.00 | 0.00 | 48 | 977.6 |
| 20260902212052 | 96 | 272 | 1.0 | 4.0 | 0.00 | 0.00 | 0.00 | 48 | 977.7 |
| 20260902211554 | 97 | 272 | 0.0 | 4.0 | 0.00 | 0.00 | 0.00 | 46 | 977.6 |
| 20260902211052 | 97 | 272 | 0.0 | 4.0 | 0.00 | 0.00 | 0.00 | 47 | 977.6 |
| 20260902210551 | 97 | 272 | 1.0 | 3.0 | 0.00 | 0.00 | 0.00 | 46 | 977.5 |
| 20260902210052 | 97 | 271 | 0.0 | 3.0 | 0.00 | 0.00 | 0.00 | 46 | 977.6 |
| 20260902205552 | 97 | 271 | 1.0 | 3.0 | 0.00 | 0.00 | 0.00 | 45 | 977.7 |
| 20260902205051 | 98 | 271 | 0.0 | 3.0 | 0.00 | 0.00 | 0.00 | 46 | 977.6 |
| 20260902204552 | 98 | 271 | 0.0 | 3.0 | 0.00 | 0.00 | 0.00 | 44 | 977.7 |
| 20260902204051 | 98 | 271 | 1.0 | 4.0 | 0.00 | 0.00 | 0.00 | 46 | 977.7 |
| 20260902203549 | 98 | 272 | 1.0 | 6.0 | 0.00 | 0.00 | 0.00 | 45 | 977.7 |
| 20260902203051 | 97 | 271 | 2.0 | 6.0 | 0.00 | 0.00 | 0.00 | 45 | 977.7 |
| 20260902202550 | 98 | 271 | 0.0 | 6.0 | 0.00 | 0.00 | 0.00 | 46 | 977.7 |
| 20260902202049 | 97 | 274 | 2.0 | 6.0 | 0.00 | 0.00 | 0.00 | 46 | 977.8 |
| 20260902201551 | 97 | 243 | 1.0 | 3.0 | 0.00 | 0.00 | 0.00 | 47 | 977.8 |
| 20260902201050 | 96 | 242 | 0.0 | 5.0 | 0.00 | 0.00 | 0.00 | 48 | 977.9 |
| 20260902200548 | 95 | 242 | 1.0 | 5.0 | 0.00 | 0.00 | 0.00 | 50 | 978.0 |
| 20260902200047 | 95 | 242 | 2.0 | 4.0 | 0.00 | 0.00 | 0.00 | 50 | 978.1 |
| 20260902195547 | 95 | 244 | 0.0 | 5.0 | 0.00 | 0.00 | 0.00 | 51 | 978.1 |
| 20260902195044 | 96 | 244 | 0.0 | 5.0 | 0.00 | 0.00 | 0.00 | 50 | 978.2 |
| 20260902194544 | 96 | 244 | 1.0 | 4.0 | 0.00 | 0.00 | 0.00 | 50 | 978.3 |
| 20260902194050 | 96 | 10 | 0.0 | 4.0 | 0.00 | 0.00 | 0.00 | 49 | 978.4 |
| 20260902193545 | 96 | 5 | 0.0 | 2.0 | 0.00 | 0.00 | 0.00 | 49 | 978.4 |
| 20260902193047 | 96 | 5 | 0.0 | 2.0 | 0.00 | 0.00 | 0.00 | 52 | 978.4 |
| 20260902192544 | 96 | 9 | 0.0 | 2.0 | 0.00 | 0.00 | 0.00 | 52 | 978.5 |
| 20260902192041 | 96 | 9 | 0.0 | 4.0 | 0.00 | 0.00 | 0.00 | 49 | 978.6 |
| 20260902191547 | 96 | 9 | 1.0 | 4.0 | 0.00 | 0.00 | 0.00 | 49 | 978.5 |
| 20260902191040 | 96 | 10 | 0.0 | 4.0 | 0.00 | 0.00 | 0.00 | 49 | 978.6 |
| 20260902190543 | 97 | 10 | 1.0 | 6.0 | 0.00 | 0.00 | 0.00 | 47 | 978.6 |
| 20260902190041 | 97 | 12 | 2.0 | 6.0 | 0.00 | 0.00 | 0.00 | 46 | 978.6 |
| 20260902185541 | 98 | 271 | 2.0 | 6.0 | 0.00 | 0.00 | 0.00 | 46 | 978.6 |
| 20260902185039 | 97 | 121 | 2.0 | 5.0 | 0.00 | 0.00 | 0.00 | 45 | 978.6 |
| 20260902184544 | 99 | 44 | 0.0 | 8.0 | 0.00 | 0.00 | 0.00 | 46 | 978.7 |
| 20260902184038 | 99 | 44 | 0.0 | 8.0 | 0.00 | 0.00 | 0.00 | 48 | 978.8 |
| 20260902183538 | 98 | 11 | 2.0 | 6.0 | 0.00 | 0.00 | 0.00 | 45 | 978.8 |
| 20260902183043 | 98 | 17 | 2.0 | 5.0 | 0.00 | 0.00 | 0.00 | 47 | 978.9 |
| 20260902182536 | 97 | 28 | 2.0 | 9.0 | 0.00 | 0.00 | 0.00 | 47 | 978.9 |
| 20260902182035 | 98 | 36 | 3.0 | 9.0 | 0.00 | 0.00 | 0.00 | 44 | 979.0 |
| 20260902181535 | 98 | 271 | 1.0 | 7.0 | 0.00 | 0.00 | 0.00 | 46 | 978.9 |
| 20260902181035 | 97 | 22 | 2.0 | 6.0 | 0.00 | 0.00 | 0.00 | 46 | 979.0 |
| 20260902180533 | 98 | 26 | 1.0 | 6.0 | 0.00 | 0.00 | 0.00 | 46 | 979.0 |
| 20260902180035 | 97 | 269 | 2.0 | 6.0 | 0.00 | 0.00 | 0.00 | 47 | 979.0 |
| 20260902175532 | 97 | 16 | 2.0 | 7.0 | 0.00 | 0.00 | 0.00 | 46 | 979.1 |
| 20260902175031 | 96 | 23 | 2.0 | 7.0 | 0.00 | 0.00 | 0.00 | 46 | 979.1 |
| 20260902174544 | 97 | 270 | 1.0 | 6.0 | 0.00 | 0.00 | 0.00 | 47 | 979.1 |
| 20260902174029 | 96 | 360 | 1.0 | 6.0 | 0.00 | 0.00 | 0.00 | 48 | 979.2 |
| 20260902173527 | 96 | 26 | 1.0 | 6.0 | 0.00 | 0.00 | 0.00 | 47 | 979.2 |
| 20260902173049 | 97 | 42 | 2.0 | 9.0 | 0.00 | 0.00 | 0.00 | 47 | 979.3 |
| 20260902172528 | 97 | 270 | 2.0 | 9.0 | 0.00 | 0.00 | 0.00 | 47 | 979.3 |
| 20260902172031 | 96 | 5 | 2.0 | 8.0 | 0.00 | 0.00 | 0.00 | 48 | 979.4 |
| 20260902171535 | 96 | 13 | 2.0 | 8.0 | 0.00 | 0.00 | 0.00 | 48 | 979.4 |
| 20260902171029 | 96 | 270 | 2.0 | 6.0 | 0.00 | 0.00 | 0.00 | 47 | 979.4 |
| 20260902170526 | 96 | 11 | 1.0 | 6.0 | 0.00 | 0.00 | 0.00 | 49 | 979.5 |
| 20260902170026 | 96 | 11 | 1.0 | 9.0 | 0.00 | 0.00 | 0.00 | 47 | 979.5 |
| 20260902165530 | 95 | 61 | 3.0 | 10.0 | 0.00 | 0.00 | 0.00 | 47 | 979.7 |
| 20260902165027 | 96 | 11 | 3.0 | 10.0 | 0.00 | 0.00 | 0.00 | 48 | 979.7 |
| 20260902164524 | 96 | 9 | 2.0 | 5.0 | 0.00 | 0.00 | 0.00 | 48 | 979.8 |
| 20260902164023 | 95 | 14 | 1.0 | 6.0 | 0.00 | 0.00 | 0.00 | 49 | 979.8 |
| 20260902163521 | 95 | 15 | 2.0 | 6.0 | 0.00 | 0.00 | 0.00 | 46 | 980.0 |
| 20260902163021 | 95 | 18 | 2.0 | 7.0 | 0.00 | 0.00 | 0.00 | 49 | 980.1 |
| 20260902162518 | 94 | 97 | 1.0 | 6.0 | 0.00 | 0.00 | 0.00 | 50 | 980.1 |
| 20260902162019 | 94 | 5 | 1.0 | 6.0 | 0.00 | 0.00 | 0.00 | 53 | 980.1 |
| 20260902161518 | 94 | 12 | 2.0 | 6.0 | 0.00 | 0.00 | 0.00 | 52 | 980.2 |
| 20260902161019 | 94 | 360 | 1.0 | 4.0 | 0.00 | 0.00 | 0.00 | 57 | 980.3 |
| 20260902160515 | 93 | 271 | 0.0 | 6.0 | 0.00 | 0.00 | 0.00 | 59 | 980.3 |
| 20260902160016 | 93 | 271 | 1.0 | 5.0 | 0.00 | 0.00 | 0.00 | 58 | 980.4 |
| 20260902155515 | 92 | 271 | 1.0 | 4.0 | 0.00 | 0.00 | 0.00 | 59 | 980.3 |
| 20260902155013 | 92 | 19 | 0.0 | 5.0 | 0.00 | 0.00 | 0.00 | 60 | 980.5 |
| 20260902154513 | 92 | 19 | 3.0 | 5.0 | 0.00 | 0.00 | 0.00 | 59 | 980.5 |
| 20260902154013 | 92 | 270 | 2.0 | 4.0 | 0.00 | 0.00 | 0.00 | 59 | 980.5 |
| 20260902153509 | 92 | 239 | 1.0 | 6.0 | 0.00 | 0.00 | 0.00 | 61 | 980.6 |
| 20260902153009 | 91 | 189 | 1.0 | 6.0 | 0.00 | 0.00 | 0.00 | 62 | 980.7 |
| 20260902152507 | 91 | 5 | 3.0 | 6.0 | 0.00 | 0.00 | 0.00 | 62 | 980.6 |
| 20260902152006 | 91 | 32 | 2.0 | 6.0 | 0.00 | 0.00 | 0.00 | 63 | 980.7 |
| 20260902151505 | 90 | 51 | 1.0 | 5.0 | 0.00 | 0.00 | 0.00 | 63 | 980.8 |
| 20260902151003 | 90 | 38 | 1.0 | 6.0 | 0.00 | 0.00 | 0.00 | 65 | 980.8 |
| 20260902150504 | 89 | 11 | 2.0 | 8.0 | 0.00 | 0.00 | 0.00 | 64 | 980.8 |
| 20260902150005 | 89 | 251 | 2.0 | 8.0 | 0.00 | 0.00 | 0.00 | 64 | 980.8 |
| 20260902145502 | 89 | 5 | 2.0 | 8.0 | 0.00 | 0.00 | 0.00 | 65 | 980.7 |
| 20260902145059 | 88 | 29 | 1.0 | 5.0 | 0.00 | 0.00 | 0.00 | 66 | 980.7 |
| 20260902144601 | 88 | 240 | 2.0 | 5.0 | 0.00 | 0.00 | 0.00 | 66 | 980.7 |
| 20260902144059 | 88 | 13 | 2.0 | 5.0 | 0.00 | 0.00 | 0.00 | 68 | 980.7 |